Flag for Vanuatu Weather past 2 weeks in Port Vila, Vanuatu

Now
66 °F

Passing clouds.


Feels Like: 66 °F
Forecast: 72 / 78 °F
Wind: 1 mph from North

Location: Bauerfield Efate

Current Time: Sep 6, 2015 at 3:23:05 AM

Latest Report: Sep 6, 2015 at 3:00 AM


Visibility: N/A

Pressure: 29.98 "Hg

Humidity: 94%

Dew point: 64 °F

Location of Port VilaLocation

Historic Weather in Port Vila — Graph

°F

Port Vila temperature yesterday

Maximum temperature yesterday: 82 °F (at 12:00 PM)
Minimum temperature yesterday: 64 °F (at 5:00 AM)
Average temperature yesterday: 73 °F

Past Weeks' High & Low Weather Summary

 TemperatureHumidityPressure
High84 °F (Sep 4, 1:00 PM)100% (Aug 23, 7:00 AM)30.12 "Hg (Aug 23, 7:00 AM)
Low59 °F (Aug 22, 5:00 AM)48% (Aug 29, 1:00 PM)29.89 "Hg (Aug 31, 2:00 PM)
Average71 °F79%30.03 "Hg
* Reported Aug 22 2:00 AM — Sep 6 2:00 AM, Port Vila, Weather by CustomWeather, © 2015

Note: Actual official high and low records may vary slightly from our data, if they occured in-between our weather recording intervals... More about our weather records

Advertising

Port Vila weather history for previous 24 hours

 ConditionsComfort  
Time TempWeatherWind HumidityBarometerVisibility
2:00 AM
Sun, Sep 6
68 °FPassing clouds.1 mph88%29.98 "HgN/A
1:00 AM70 °FPassing clouds.1 mph94%29.98 "HgN/A
12:00 AM70 °FPassing clouds.1 mph94%29.98 "HgN/A
11:00 PM
Sat, Sep 5
72 °FPassing clouds.2 mph88%29.98 "HgN/A
10:00 PM72 °FPassing clouds.2 mph88%29.98 "HgN/A
9:00 PM72 °FPassing clouds.1 mph88%30.01 "HgN/A
8:00 PM72 °FPassing clouds.1 mph83%30.01 "HgN/A
7:00 PM72 °FPassing clouds.3 mph88%29.98 "HgN/A
6:00 PM73 °FPassing clouds.6 mph78%29.98 "HgN/A
5:00 PM77 °FScattered clouds.9 mph69%29.95 "HgN/A
4:00 PM81 °FPassing clouds.8 mph58%29.92 "HgN/A
3:00 PM81 °FPassing clouds.8 mph62%29.92 "HgN/A
2:00 PM73 °FPassing clouds.7 mph89%29.92 "HgN/A
1:00 PM81 °FPassing clouds.8 mph62%29.95 "HgN/A
12:00 PM82 °FPassing clouds.8 mph62%29.95 "HgN/A
11:00 AM81 °FPassing clouds.9 mph66%29.98 "HgN/A
10:00 AM81 °FPassing clouds.7 mph66%30.01 "HgN/A
9:00 AM79 °FPassing clouds.6 mph74%30.01 "HgN/A
8:00 AM73 °FPassing clouds.3 mph100%30.01 "HgN/A
7:00 AM68 °FScattered clouds.No wind94%30.01 "HgN/A
6:00 AM66 °FScattered clouds.No wind94%30.01 "HgN/A
5:00 AM64 °FPassing clouds.No wind94%29.98 "HgN/A
3:00 AM66 °FPassing clouds.No wind94%29.98 "HgN/A
Weather by CustomWeather, © 2015

See weather overviewHow to use our weather pages